Gainesville, GA

11:50 PM EST on December 03, 2016 (GMT -0500)
Gilmer Memorial

Weather History for KGVL - September, 2014

Change the Weather History Date:

Friday, September 19, 2014

  Actual Average Record
Temperature  
Mean Temperature 73 °F 71 °F  
Max Temperature 80 °F 80 °F 95 °F (1954)
Min Temperature 66 °F 62 °F 46 °F (1937)
Degree Days  
Heating Degree Days 0 0  
Month to date heating degree days 0 0  
Since 1 July heating degree days 0 0  
Cooling Degree Days 8 6  
Month to date cooling degree days 217 166  
Year to date cooling degree days 1564 1492  
Growing Degree Days 22 (Base 50)    
Moisture  
Dew Point 63 °F    
Average Humidity 74    
Maximum Humidity 93    
Minimum Humidity 54    
Precipitation  
Precipitation 0.00 in 0.15 in 1.59 in (1968)
Month to date precipitation 4.12 2.95  
Year to date precipitation 32.91 39.20  
Sea Level Pressure  
Sea Level Pressure 30.10 in    
Wind  
Wind Speed 9 mph (ENE)    
Max Wind Speed 15 mph    
Max Gust Speed 20 mph    
Visibility 10 miles    
Events      
T = Trace of Precipitation, MM = Missing Value Source: NWS Daily Summary

Daily Weather History Graph

Daily Weather History Graph

Search for Another Location

Airport or City:

Trip Planner

Search our weather history database for the weather conditions in past years. The results will help you decide how hot, cold, wet, or windy it might be!

Date:

Astronomy

Sep. 19, 2014 Rise Set
Actual Time 7:21 AM EDT 7:36 PM EDT
Civil Twilight 6:56 AM EDT 8:01 PM EDT
Nautical Twilight 6:26 AM EDT 8:30 PM EDT
Astronomical Twilight 5:57 AM EDT 9:00 PM EDT
Moon 3:14 AM EDT (9/19) 4:56 PM EDT (9/19)
Length of Visible Light 13h 05m
Length of Day
12h 15m
Waning Crescent, 18% of the Moon is Illuminated
Sep 19
Waning Crescent
Sep 24
New
Oct 1
First Quarter
Oct 8
Full
Oct 15
Last Quarter

Hourly Weather History & Observations

Time (EDT) Temp. Dew Point Humidity Pressure Visibility Wind Dir Wind Speed Gust Speed Precip Events Conditions
12:53 AM 69.1 °F 64.0 °F 84% 30.02 in 10.0 mi East 4.6 mph - N/A   Scattered Clouds
1:53 AM 69.1 °F 64.0 °F 84% 30.03 in 10.0 mi ENE 4.6 mph - N/A   Partly Cloudy
2:53 AM 68.0 °F 64.0 °F 87% 30.03 in 10.0 mi ENE 4.6 mph - N/A   Clear
3:53 AM 66.9 °F 64.0 °F 90% 30.02 in 10.0 mi ENE 4.6 mph - N/A   Clear
4:53 AM 66.9 °F 64.0 °F 90% 30.02 in 9.0 mi NE 3.5 mph - N/A   Clear
5:53 AM 66.0 °F 63.0 °F 90% 30.03 in 10.0 mi ENE 5.8 mph - N/A   Clear
6:53 AM 66.0 °F 63.0 °F 90% 30.04 in 9.0 mi East 6.9 mph - N/A   Clear
7:53 AM 66.9 °F 63.0 °F 87% 30.07 in 7.0 mi ENE 9.2 mph - N/A   Overcast
8:53 AM 68.0 °F 64.0 °F 87% 30.09 in 8.0 mi East 9.2 mph - N/A   Clear
10:11 AM 70.0 °F 64.9 °F 84% 30.14 in 10.0 mi ENE 11.5 mph - N/A   Mostly Cloudy
10:32 AM 71.1 °F 64.9 °F 81% 30.15 in 10.0 mi East 9.2 mph - N/A   Overcast
10:53 AM 70.0 °F 64.0 °F 81% 30.12 in 10.0 mi East 11.5 mph - N/A   Overcast
11:51 AM 73.4 °F 64.4 °F 73% 30.16 in 10.0 mi East 9.2 mph - N/A   Scattered Clouds
11:53 AM 73.0 °F 64.9 °F 76% 30.12 in 10.0 mi East 10.4 mph - N/A   Mostly Cloudy
12:45 PM 75.0 °F 64.0 °F 69% 30.15 in 10.0 mi ENE 11.5 mph - N/A   Scattered Clouds
12:53 PM 75.0 °F 64.0 °F 69% 30.11 in 10.0 mi East 10.4 mph - N/A   Scattered Clouds
1:53 PM 75.9 °F 64.0 °F 67% 30.10 in 10.0 mi East 10.4 mph - N/A   Mostly Cloudy
2:53 PM 78.1 °F 63.0 °F 60% 30.09 in 10.0 mi ENE 12.7 mph - N/A   Scattered Clouds
3:53 PM 79.0 °F 62.1 °F 56% 30.07 in 10.0 mi ENE 11.5 mph - N/A   Partly Cloudy
4:53 PM 79.0 °F 61.0 °F 54% 30.08 in 10.0 mi East 12.7 mph - N/A   Clear
5:53 PM 77.0 °F 61.0 °F 58% 30.08 in 10.0 mi East 10.4 mph - N/A   Clear
6:53 PM 75.0 °F 62.1 °F 64% 30.09 in 10.0 mi ENE 5.8 mph - N/A   Clear
7:53 PM 72.0 °F 63.0 °F 73% 30.11 in 10.0 mi East 8.1 mph - N/A   Scattered Clouds
8:05 PM 72.0 °F 64.0 °F 76% 30.15 in 10.0 mi East 9.2 mph - N/A   Mostly Cloudy
8:26 PM 71.1 °F 64.0 °F 78% 30.16 in 10.0 mi ENE 6.9 mph - N/A   Scattered Clouds
8:53 PM 70.0 °F 64.0 °F 81% 30.13 in 10.0 mi ENE 8.1 mph - N/A   Partly Cloudy
10:34 PM 69.1 °F 61.0 °F 75% 30.20 in 10.0 mi ENE 10.4 mph - N/A   Overcast
10:53 PM 69.1 °F 60.1 °F 73% 30.17 in 10.0 mi East 9.2 mph - N/A   Mostly Cloudy
11:07 PM 68.0 °F 60.1 °F 76% 30.20 in 10.0 mi East 10.4 mph - N/A   Scattered Clouds
11:53 PM 66.9 °F 60.1 °F 79% 30.17 in 10.0 mi ENE 9.2 mph - N/A   Clear